Regional Weather Roundup
Issued by NWS

Home | Current Version | Previous Version | Graphics & Text | Print | Product List | Glossary On
Versions: 1 2 3 4 5 6 7 8 9 10 11 12 13 14 15 16 17 18 19 20 21 22 23 24 25 26 27 28 29 30 31 32 33 34 35 36 37 38 39 40 41 42 43 44 45 46 47 48 49 50
000
ASUS43 KDMX 210006
RWRIA

WEATHER ROUNDUP FOR IOWA
NATIONAL WEATHER SERVICE DES MOINES IA
600 PM CST MON FEB 20 2017

NOTE: "FAIR" INDICATES FEW OR NO CLOUDS BELOW 12,000 FEET WITH NO
SIGNIFICANT WEATHER AND/OR OBSTRUCTIONS TO VISIBILITY.

* - THESE STATIONS ARE NOT NWS STATIONS...THUS NOT UNDER NWS
QUALITY CONTROL.  THEY ALSO DO NOT REPORT WEATHER SUCH
AS PRECIPITATION OR FOG.

IAZ001>003-012>014-020>022-031>034-043>046-210100-
   NORTHWEST IOWA

CITY           SKY/WX    TMP DP  RH WIND       PRES   REMARKS
CARROLL *      MOCLDY    57  57 100 SW12      29.80R
CHEROKEE *     CLOUDY    49  46  90 W6        29.80R
DENISON *      CLOUDY    54  46  76 W10G16    29.82R
LE MARS *      PTCLDY    52  45  76 NW7       29.83R
SHELDON *      PTCLDY    50  50 100 W16       29.78R
SIOUX CITY     CLEAR     54  45  71 NW6       29.83R
6HR MIN TEMP:  54; 6HR MAX TEMP:  62; 6HR PCP: TRACE;

SPENCER        CLOUDY    49  46  90 W12       29.77R
6HR MIN TEMP:  49; 6HR MAX TEMP:  57; 6HR PCP:  0.06;

STORM LAKE *   CLOUDY    48  46  93 W15       29.81R
$$

IAZ055>058-069>071-079>083-090>094-210100-
   SOUTHWEST IOWA

CITY           SKY/WX    TMP DP  RH WIND       PRES   REMARKS
ATLANTIC *     MOCLDY    57  57 100 S7        29.81S
CLARINDA *     CLOUDY    59  59 100 SW6         N/A
COUNCIL BLFS * CLOUDY    55  50  82 NW6G13    29.84R
CRESTON *      MOCLDY    57  57 100 SW7       29.86R
HARLAN  *      CLOUDY    55  54  94 NW14G20   29.86R
LAMONI         CLOUDY    61  57  87 S8        29.85R
6HR MIN TEMP:  58; 6HR MAX TEMP:  62; 6HR PCP: TRACE;

RED OAK *      CLOUDY    57  57 100 S7        29.83S
SHENANDOAH *   CLOUDY    59  55  88 S8        29.84S
$$

IAZ047>049-059>061-072>074-084-210100-
   CENTRAL IOWA

CITY           SKY/WX    TMP DP  RH WIND       PRES   REMARKS
AMES           CLOUDY    58  58 100 S10       29.82R
6HR MIN TEMP:  57; 6HR MAX TEMP:  59; 6HR PCP:  0.06;

ANKENY *       CLOUDY    59  57  94 SW7       29.84R
BOONE *        CLOUDY    57  57 100 S10       29.80R
CHARITON *     CLOUDY    59  57  94 S7        29.84R
DES MOINES     CLOUDY    61  57  87 SW9       29.82R
6HR MIN TEMP:  60; 6HR MAX TEMP:  62; 6HR PCP:  0.02;

GRINNELL*      CLOUDY    58  56  93 SW6       29.85R
KNOXVILLE *    CLOUDY    61  57  88 SW8       29.83R
MARSHALLTOWN   CLOUDY    58  57  97 S12       29.82R
6HR MIN TEMP:  57; 6HR MAX TEMP:  58; 6HR PCP:  0.04;

NEWTON *       MOCLDY    59  57  94 SW10      29.82R
PELLA *        CLOUDY    60  57  91 S6        29.85R
PERRY *        MOCLDY    58  56  95 S9        29.82R
$$

IAZ004>006-015-016-023>025-035-036-210100-
   NORTH CENTRAL IOWA

CITY           SKY/WX    TMP DP  RH WIND       PRES   REMARKS
ALGONA *       CLOUDY    54  54 100 SW15      29.76R FOG
CLARION *      CLOUDY    55  55 100 S14       29.79R FOG
ESTHERVILLE    CLOUDY    49  47  93 W18G35    29.75R
6HR MIN TEMP:  49; 6HR MAX TEMP:  55; 6HR PCP:  0.08;

FORT DODGE *   CLOUDY    55  54  94 SW10      29.78R
MASON CITY     CLOUDY    53  52  96 S12       29.76S FOG
6HR MIN TEMP:  49; 6HR MAX TEMP:  55; 6HR PCP:  0.40;

FOREST CITY *  MOCLDY    54  54 100 SW9       29.74R FOG
IOWA FALLS *   CLOUDY    56  55  97 S9        29.81R FOG
$$

IAZ007>011-017>019-026>030-037>042-050>054-066-210100-
   NORTHEAST IOWA

CITY           SKY/WX    TMP DP  RH WIND       PRES   REMARKS
CEDAR RAPIDS   CLOUDY    58  58 100 S7        29.82F
6HR MIN TEMP:  57; 6HR MAX TEMP:  61; 6HR PCP:  0.13;

CHARLES CITY * CLOUDY    55  55 100 SW9       29.80R FOG
CLINTON *      CLOUDY    65  53  65 S15       29.85S
DECORAH *      LGT RAIN  55  54  94 S13G22    29.79R
DUBUQUE        RAIN      53  53 100 SW8       29.86R FOG
6HR MIN TEMP:  53; 6HR MAX TEMP:  59; 6HR PCP:  0.15;

MONTICELLO *   LGT RAIN  57  55  94 S10       29.85S
OELWEIN *      CLOUDY    55  55 100 S12G21    29.82R FOG
WATERLOO       CLOUDY    56  55  97 S14       29.81R
6HR MIN TEMP:  55; 6HR MAX TEMP:  56; 6HR PCP:  0.40;

$$

IAZ064-065-067-068-078-210100-
   EAST CENTRAL IOWA

CITY           SKY/WX    TMP DP  RH WIND       PRES   REMARKS
DAVENPORT      CLOUDY    68  52  56 S10       29.86R
6HR MIN TEMP:  63; 6HR MAX TEMP:  69; 6HR PCP: TRACE;

IOWA CITY      CLOUDY    62  57  83 S10       29.85F
6HR MIN TEMP:  60; 6HR MAX TEMP:  64; 6HR PCP:  0.15;

MUSCATINE *    LGT RAIN  63  57  82 SW12      29.86S
QUAD CITIES    CLOUDY    70  51  51 S7        29.85R
6HR MIN TEMP:  64; 6HR MAX TEMP:  73;

$$

IAZ062-063-075>077-085>089-095>099-210100-
   SOUTHEAST IOWA

CITY           SKY/WX    TMP DP  RH WIND       PRES   REMARKS
BURLINGTON     CLOUDY    69  51  52 W8        29.86R
6HR MIN TEMP:  65; 6HR MAX TEMP:  74;

FAIRFIELD *    CLOUDY    63  57  82 S9        29.85R
KEOKUK *       CLOUDY    68  57  68 W9G16     29.87R
OTTUMWA        CLOUDY    62  58  86 SW6       29.84R
6HR MIN TEMP:  61; 6HR MAX TEMP:  65; 6HR PCP:  0.05;

WASHINGTON *   CLOUDY    61  59  94 S10       29.86S
$$

ABBREVIATIONS USED IN REMARKS
   TC - TEMPERATURES IN CELSIUS
  WCI - WIND CHILL INDEX
   HX - HEAT INDEX
  VSB - VISIBILITY
$$





USA.gov is the U.S. government's official web portal to all federal, state and local government web resources and services.